Regional Weather Roundup
Issued by NWS Boston, MA

Home | Current Version | Previous Version | Text Only | Print | Product List | Glossary On
Versions: 1 2 3 4 5 6 7 8 9 10 11 12 13 14 15 16 17 18 19 20 21 22 23 24 25 26 27 28
000
ASUS41 KBOX 251910
RWRBOX

REGIONAL WEATHER ROUNDUP
NATIONAL WEATHER SERVICE TAUNTON MA
300 PM EDT SAT OCT 25 2014

NOTE:  "FAIR" INDICATES FEW OR NO CLOUDS BELOW 12,000 FEET WITH NO
SIGNIFICANT WEATHER AND/OR OBSTRUCTIONS TO VISIBILITY.  THE FOLLOWING
OBSERVATION LOCATIONS DO NOT REPORT PRESENT WEATHER...PROVINCETOWN...
SMITHFIELD...BLOCK ISLAND...KEENE...AND OXFORD.

MAZALL-252000-
EASTERN MASSACHUSETTS

CITY           SKY/WX    TMP DP  RH WIND       PRES   REMARKS
BOSTON         PTSUNNY   63  42  46 SW12      29.62F
BEVERLY        MOSUNNY   63  38  39 W8        29.60F
LAWRENCE       MOSUNNY   64  38  38 MISG      29.62F
BEDFORD        MOSUNNY   64  38  38 W12       29.61F
BLUE HILL        N/A     62  39  42 W10       29.62F
NORWOOD        SUNNY     64  38  38 W10       29.62F
MARSHFIELD     NOT AVBL
PLYMOUTH       SUNNY     64  43  46 SW13      29.63F
TAUNTON        SUNNY     66  35  31 W8        29.63F
NEW BEDFORD    SUNNY     63  39  41 W8        29.63F
$$

MAZALL-252000-
CAPE COD AND THE ISLANDS

CITY           SKY/WX    TMP DP  RH WIND       PRES   REMARKS
FALMOUTH       SUNNY     63  48  59 SW12G18   29.64F
HYANNIS        SUNNY     62  50  64 SW17      29.63F
CHATHAM        SUNNY     60  48  64 SW9G18    29.65F
PROVINCETOWN   SUNNY     64   9  11 SW10      29.63F
NANTUCKET      SUNNY     61  49  64 W18G26    29.67F
MARTHAS VNYRD  SUNNY     62  46  55 SW13      29.66F
$$

MAZALL-252000-
CENTRAL AND WESTERN MASSACHUSETTS

CITY           SKY/WX    TMP DP  RH WIND       PRES   REMARKS
WORCESTER      PTSUNNY   59  39  47 W12       29.64F
FITCHBURG      PTSUNNY   66  38  35 NW10      29.63F
ORANGE         MOSUNNY   62  43  49 W13       29.64F
SPRINGFIELD    MOSUNNY   65  45  47 NW13      29.64F
WESTFIELD      CLOUDY    64  44  48 NW8       29.65F
NORTH ADAMS    PTSUNNY   59  45  59 W8        29.64F
PITTSFIELD     SUNNY     57  44  62 W7        29.63F
$$

RIZALL-252000-
RHODE ISLAND

CITY           SKY/WX    TMP DP  RH WIND       PRES   REMARKS
PROVIDENCE     MOSUNNY   66  40  38 W13       29.65F
NEWPORT        SUNNY     67  40  37 MISG      29.65F
BLOCK ISLAND   SUNNY     63  41  45 W13G20    29.69F
SMITHFIELD     MOSUNNY   63  36  36 SW6       29.64F
WESTERLY       MOSUNNY   62  41  46 SW8G20    29.67F
$$

CTZALL-252000-
CONNECTICUT

CITY           SKY/WX    TMP DP  RH WIND       PRES   REMARKS
BRADLEY INTL   PTSUNNY   66  42  41 W15       29.65F
HARTFORD       PTSUNNY   65  40  39 W10       29.66F
BRIDGEPORT     MOSUNNY   65  50  58 SW17      29.68F
DANBURY        MOSUNNY   64  40  41 W12       29.70F
GROTON         MOSUNNY   60  45  57 SW15G22   29.66F
NEW HAVEN      MOSUNNY   65  51  60 S9        29.68F
CHESTER        NOT AVBL
MERIDEN        MOSUNNY   66  41  40 W10G17    29.67F
WILLIMANTIC    MOSUNNY   65  42  43 NW6       29.65F
OXFORD         SUNNY     63  43  48 W7G18     29.68F
$$

MEZ002-015-021-024-NHZ003-005-008-011-012-014-VTZ005-008-252000-
NORTHERN NEW ENGLAND

CITY           SKY/WX    TMP DP  RH WIND       PRES   REMARKS
PORTLAND ME    MOSUNNY   61  43  51 S7        29.58F
BANGOR ME      MOSUNNY   60  33  36 NW5       29.56F
CONCORD NH     PTSUNNY   66  35  31 VRB3      29.59F
MANCHESTER NH  PTSUNNY   64  37  36 SW9       29.58F
NASHUA NH      PTSUNNY   65  39  38 CALM      29.61F
PORTSMOUTH NH  PTSUNNY   64  35  34 W5        29.58F
JAFFREY NH     PTSUNNY   60  38  43 W12       29.64F
KEENE NH       MOSUNNY   63  37  39 SW8       29.63S
BURLINGTON VT  PTSUNNY   58  42  55 S12       29.59F
MT. WASHINGTON PTSUNNY   36  14  41 NW18        N/A  WCI  25
$$

NYZ052-076-252000-
EASTERN NEW YORK

CITY           SKY/WX    TMP DP  RH WIND       PRES   REMARKS
ALBANY         PTSUNNY   61  46  57 S7        29.64F
NEW YORK CITY  MOSUNNY   67  40  37 SW10      29.70F
$$

ANZALL-252000-
MARINE OBSERVATIONS

STATION/POSITION TIME  TEMP    WIND        PRES    VSBY  WAVE
                       AIR SEA DIR/SP/G                  HT/PER
                 (UTC) (F)     (DEG/KT/KT) (MB)    (MI)  (FT/S)
BOSTON BUOY      NOT AVBL
BUZZARDS BAY     NOT AVBL
NANTUCKET SOUND  NOT AVBL
MASS BAY-STELLWA NOT AVBL
ISLE OF SHOALS   NOT AVBL
S OF BLOCK IS    NOT AVBL
$$

......................KEY.........................
  SKY/WX - SKY CONDITION/PRESENT WEATHER
  TMP    - TEMPERATURE IN FAHRENHEIT
  DWPT   - DEWPOINT IN FAHRENHEIT
  RH     - RELATIVE HUMIDITY IN PERCENT
  WIND   - DIRECTION AND SPEED IN MPH
  PRES   - MEAN SEA LEVEL PRESSURE IN INCHES OF HG
  WCI    - WIND CHILL INDEX
  VSB    - VISIBILITY IN MILES
  HX     - HEAT INDEX
  TC     - TEMPERATURE IN CELSIUS
  VRB    - VARIABLE WIND DIRECTION
  N/A    - NOT AVAILABLE



USA.gov is the U.S. government's official web portal to all federal, state and local government web resources and services.